CAPE
0 0 0 0 0 0 0 0 0 0 0 0 0 0 0 0 0 0 0 0 0 0 0 0 0 0 0 0 0 0 0 0 0 0 0 0 0 0 0 0 0 0 0 0
0 0 0 0 0 0 0 0 0 0 0 0 0 0 0 0 0 0 0 0 0 0 0 0 0 0 0 0 0 0 0 0 0 0 0 0 0 0 0 0 0 0 0 0
0 0 0 0 0 0 0 0 0 0 0 0 0 0 0 0 0 0 0 0 0 0 0 0 0 0 0 0 0 0 0 0 0 0 0 0 0 0 0 0 0 0 0 0
0 0 0 0 0 0 0 0 0 0 0 0 0 0 0 0 0 0 0 0 0 0 0 0 0 0 0 0 0 0 0 0 0 0 0 0 0 0 0 0 0 0 0 2
0 0 0 0 0 0 0 0 0 0 0 0 0 0 0 0 0 0 0 0 0 0 0 0 0 0 0 0 0 0 0 0 0 0 0 0 0 0 0 0 0 3 1 0
0 0 0 0 0 0 0 0 0 0 0 0 0 0 0 0 0 0 0 0 0 0 0 0 0 0 0 0 0 0 0 0 0 0 0 0 0 0 0 0 0 0 0 3
0 0 0 0 0 0 0 0 0 0 0 0 0 0 0 0 0 0 0 0 0 0 0 0 0 0 0 0 0 0 0 0 0 0 0 0 0 0 0 0 0 0 0 1
0 0 0 0 0 0 0 0 0 0 0 0 0 0 0 0 0 0 0 0 0 0 0 0 0 0 0 0 0 0 0 0 0 0 0 0 0 0 0 0 0 0 3 0
0 0 0 0 0 0 0 0 0 0 0 0 0 0 0 0 0 0 0 0 0 0 0 0 0 0 0 0 0 0 0 0 0 0 0 0 0 0 0 0 0 1 3 1
0 0 0 0 0 0 0 0 0 0 0 0 0 0 0 0 0 0 0 0 0 0 0 0 0 0 0 0 0 0 0 0 0 0 0 0 0 0 0 0 0 0 3 2
0 0 0 0 0 0 0 0 0 0 0 0 0 0 0 0 0 0 0 0 0 0 0 0 0 0 0 0 0 0 0 0 0 0 0 0 0 0 0 0 0 0 0 0
0 0 0 0 0 0 0 0 0 0 0 0 0 0 0 0 0 0 0 0 0 0 0 0 0 0 0 0 0 0 0 0 0 0 0 0 0 0 0 0 0 0 0 1
0 0 0 0 0 0 0 0 0 0 0 0 0 0 0 0 0 0 0 0 0 0 0 0 0 0 0 0 0 0 0 0 0 0 0 0 0 0 0 0 0 0 0 3
0 0 0 0 0 0 0 0 0 0 0 0 0 0 0 0 0 0 0 0 0 0 0 0 0 0 0 0 0 0 0 0 0 0 0 0 0 0 0 0 0 0 0 1
0 0 0 0 0 0 0 0 0 0 0 0 0 0 0 0 0 0 0 0 0 0 0 0 0 0 0 0 0 0 0 0 0 0 0 0 0 0 0 0 0 0 0 0
0 0 0 0 0 0 0 0 0 0 0 0 0 0 0 0 0 0 0 0 0 0 0 0 0 0 0 0 0 0 0 0 0 0 0 0 0 3 3 3 4 3 0 2
0 0 0 0 0 0 0 0 0 0 0 0 0 0 0 0 0 0 0 0 0 0 0 0 0 0 0 0 0 0 0 0 0 0 1 0 1 5 3 0 0 0 1 0
0 0 0 0 0 0 0 0 0 0 0 0 0 0 0 0 0 0 0 0 0 0 0 0 0 0 0 0 0 0 0 0 0 0 1 1 2 3 0 0 0 0 0 0
0 0 0 0 0 0 0 0 0 0 0 0 0 0 0 0 0 0 0 0 0 0 0 0 0 0 0 0 0 0 0 0 0 0 0 0 0 0 0 0 0 0 0 0
0 0 0 0 0 0 0 0 0 0 0 0 0 0 0 0 0 0 0 0 0 0 0 0 0 0 0 0 0 0 0 0 0 0 0 0 0 0 0 0 0 0 0 0
0 0 0 0 0 0 0 0 0 0 0 0 0 0 0 0 0 0 0 0 0 0 0 0 0 0 0 0 0 0 0 0 0 0 0 0 0 0 0 0 0 0 0 0
0 0 0 0 0 0 0 0 0 0 0 0 0 0 0 0 0 0 0 0 0 0 0 0 0 0 0 0 0 0 0 0 0 0 0 0 0 0 0 0 0 0 0 0
0 0 0 0 0 0 0 0 0 0 0 0 0 0 0 0 0 0 0 0 0 0 0 0 0 0 0 0 0 0 0 0 0 0 0 0 0 0 0 0 0 0 0 0
0 0 0 0 0 0 0 0 0 0 0 0 0 0 0 0 0 0 0 0 0 0 0 0 0 0 0 0 0 0 0 0 0 0 0 0 0 0 0 0 0 0 0 0
0 0 0 0 0 0 0 0 0 0 0 0 0 0 0 0 0 0 0 0 0 0 0 0 0 0 0 0 0 0 0 0 0 0 0 0 0 0 0 0 0 0 0 0
0 0 0 0 0 0 0 0 0 0 0 0 0 0 0 0 0 0 0 0 0 0 0 0 0 0 0 0 0 0 0 0 0 0 0 0 0 0 0 0 0 0 0 0
0 0 0 0 0 0 0 0 0 0 0 0 0 0 0 0 0 0 0 0 0 0 0 0 0 0 0 0 0 0 0 0 0 0 0 0 0 0 0 0 0 0 0 0
CIN
0 0 0 0 0 0 0 0 0 0 0 0 0 0 0 0 0 0 0 0 0 0 0 0 0 0 0 0 0 0 0 0 0 0 0 0 0 0 0 0 0 0 0 0
0 0 0 0 0 0 0 0 0 0 0 0 0 0 0 0 0 0 0 0 0 0 0 0 0 0 0 0 0 0 0 0 0 0 0 0 0 0 0 0 0 0 0 0
0 0 0 0 0 0 0 0 0 0 0 0 0 0 0 0 0 0 0 0 0 0 0 0 0 0 0 0 0 0 0 0 0 0 0 0 0 0 0 0 0 0 0 0
0 0 0 0 0 0 0 0 0 0 0 0 0 0 0 0 0 0 0 0 0 0 0 0 0 0 0 0 0 0 0 0 0 0 0 0 0 0 0 0 0 0 0 -1
0 0 0 0 0 0 0 0 0 0 0 0 0 0 0 0 0 0 0 0 0 0 0 0 0 0 0 0 0 0 0 0 0 0 0 0 0 0 0 0 0 -1 -1 -1
0 0 0 0 0 0 0 0 0 0 0 0 0 0 0 0 0 0 0 0 0 0 0 0 0 0 0 0 0 0 0 0 0 0 0 0 0 0 0 0 0 0 -1 -1
0 0 0 0 0 0 0 0 0 0 0 0 0 0 0 0 0 0 0 0 0 0 0 0 0 0 0 0 0 0 0 0 0 0 0 0 0 0 0 0 0 0 -1 -1
0 0 0 0 0 0 0 0 0 0 0 0 0 0 0 0 0 0 0 0 0 0 0 0 0 0 0 0 0 0 0 0 0 0 0 0 0 0 0 0 0 0 -2 -1
0 0 0 0 0 0 0 0 0 0 0 0 0 0 0 0 0 0 0 0 0 0 0 0 0 0 0 0 0 0 0 0 0 0 0 0 0 0 0 0 0 0 0 -1
0 0 0 0 0 0 0 0 0 0 0 0 0 0 0 0 0 0 0 0 0 0 0 0 0 0 0 0 0 0 0 0 0 0 0 0 0 0 0 0 0 0 0 0
0 0 0 0 0 0 0 0 0 0 0 0 0 0 0 0 0 0 0 0 0 0 0 0 0 0 0 0 0 0 0 0 0 0 0 0 0 0 0 0 0 0 -1 -1
0 0 0 0 0 0 0 0 0 0 0 0 0 0 0 0 0 0 0 0 0 0 0 0 0 0 0 0 0 0 0 0 0 0 0 0 0 0 0 0 0 0 -2 -1
0 0 0 0 0 0 0 0 0 0 0 0 0 0 0 0 0 0 0 0 0 0 0 0 0 0 0 0 0 0 0 0 0 0 0 0 0 0 0 0 0 0 0 -1
0 0 0 0 0 0 0 0 0 0 0 0 0 0 0 0 0 0 0 0 0 0 0 0 0 0 0 0 0 0 0 0 0 0 0 0 0 0 0 0 0 0 0 -1
0 0 0 0 0 0 0 0 0 0 0 0 0 0 0 0 0 0 0 0 0 0 0 0 0 0 0 0 0 0 0 0 0 0 0 0 0 0 0 0 0 0 0 0
0 0 0 0 0 0 0 0 0 0 0 0 0 0 0 0 0 0 0 0 0 0 0 0 0 0 0 0 0 0 0 0 0 0 0 -1 -1 -3 -2 -2 0 -3 -1 0
0 0 0 0 0 0 0 0 0 0 0 0 0 0 0 0 0 0 0 0 0 0 0 0 0 0 0 0 0 0 0 0 0 0 -2 -2 -2 -1 -2 0 0 0 0 0
0 0 0 0 0 0 0 0 0 0 0 0 0 0 0 0 0 0 0 0 0 0 0 0 0 0 0 0 0 0 0 0 0 0 -2 -3 -6 -3 0 0 0 0 0 0
0 0 0 0 0 0 0 0 0 0 0 0 0 0 0 0 0 0 0 0 0 0 0 0 0 0 0 0 0 0 0 0 0 0 -1 -1 0 0 0 0 0 0 0 0
0 0 0 0 0 0 0 0 0 0 0 0 0 0 0 0 0 0 0 0 0 0 0 0 0 0 0 0 0 0 0 0 0 0 0 0 0 0 0 0 0 0 0 0
0 0 0 0 0 0 0 0 0 0 0 0 0 0 0 0 0 0 0 0 0 0 0 0 0 0 0 0 0 0 0 0 0 0 0 0 0 0 0 0 0 0 0 0
0 0 0 0 0 0 0 0 0 0 0 0 0 0 0 0 0 0 0 0 0 0 0 0 0 0 0 0 0 0 0 0 0 0 0 0 0 0 0 0 0 0 0 0
0 0 0 0 0 0 0 0 0 0 0 0 0 0 0 0 0 0 0 0 0 0 0 0 0 0 0 0 0 0 0 0 0 0 0 0 0 0 0 0 0 0 0 0
0 0 0 0 0 0 0 0 0 0 0 0 0 0 0 0 0 0 0 0 0 0 0 0 0 0 0 0 0 0 0 0 0 0 0 0 0 0 0 0 0 0 0 0
0 0 0 0 0 0 0 0 0 0 0 0 0 0 0 0 0 0 0 0 0 0 0 0 0 0 0 0 0 0 0 0 0 0 0 0 0 0 0 0 0 0 0 0
0 0 0 0 0 0 0 0 0 0 0 0 0 0 0 0 0 0 0 0 0 0 0 0 0 0 0 0 0 0 0 0 0 0 0 0 0 0 0 0 0 0 0 0
0 0 0 0 0 0 0 0 0 0 0 0 0 0 0 0 0 0 0 0 0 0 0 0 0 0 0 0 0 0 0 0 0 0 0 0 0 0 0 0 0 0 0 0
Wind_Speed
6 5 7 8 9 10 9 6 8 9 17 22 22 22 21 19 16 16 15 15 13 11 8 7 7 7 6 5 5 5 6 6 5 6 6 6 7 9 11 11 11 12 12 12
5 3 3 6 15 15 8 7 4 16 9 18 18 17 15 17 18 18 17 16 14 12 10 8 8 7 6 5 6 6 6 5 5 6 6 6 7 10 11 11 11 11 12 11
5 2 4 6 16 12 6 8 11 13 8 19 16 20 19 18 20 17 18 16 15 13 10 9 8 7 6 5 6 6 5 4 5 5 6 6 8 9 10 11 11 11 12 12
4 3 4 9 8 14 21 14 7 7 13 23 21 16 15 17 17 19 18 16 14 12 9 9 7 7 6 7 6 6 5 5 5 5 5 6 8 9 9 9 11 10 13 14
7 4 5 6 6 12 13 12 11 13 15 19 17 14 4 8 15 18 17 15 13 10 11 8 8 7 8 7 6 6 5 5 5 5 5 6 8 8 8 9 10 12 12 15
4 8 13 8 6 9 9 13 11 15 19 20 20 15 11 12 17 16 16 14 13 11 10 10 7 8 9 6 6 5 4 4 5 4 4 5 6 7 7 8 9 9 12 11
3 5 9 8 5 10 15 11 14 20 21 23 23 7 11 16 17 18 17 16 12 13 11 9 8 9 8 6 6 4 4 6 5 4 5 5 5 5 6 8 7 8 13 11
3 2 11 8 9 18 7 4 17 19 23 23 13 20 20 19 19 18 17 14 12 12 10 7 8 10 7 7 5 5 5 6 5 5 5 5 5 5 5 6 8 9 11 11
13 11 5 5 4 6 6 7 8 18 20 21 23 22 23 20 20 17 17 13 13 13 10 7 7 9 8 6 6 5 5 5 4 4 4 4 5 5 5 6 7 10 8 11
5 8 7 7 3 5 6 6 8 16 21 25 23 23 21 19 17 16 13 15 12 14 12 8 7 8 9 6 6 5 4 4 3 4 4 4 3 3 3 4 6 7 8 10
4 6 3 4 4 6 6 11 15 18 24 22 26 21 22 18 16 15 15 13 14 13 11 10 9 9 7 6 6 5 4 4 3 3 3 4 3 4 4 4 4 6 6 7
11 7 8 9 10 10 16 15 19 19 15 19 24 22 18 17 16 16 16 14 12 13 12 10 11 9 7 6 6 5 5 4 2 1 2 3 4 3 4 8 11 11 12 9
7 10 9 10 13 8 15 17 16 20 21 19 14 18 19 17 14 17 15 15 15 14 13 11 11 9 6 6 6 5 6 4 1 1 2 3 3 4 8 6 7 10 13 14
6 10 5 10 14 16 17 15 17 15 16 16 15 15 16 16 16 18 16 15 14 14 13 12 11 9 6 6 6 7 5 4 2 1 2 3 3 3 3 4 8 9 11 14
14 11 15 12 13 13 16 16 17 17 16 14 14 15 17 19 18 16 14 15 15 14 13 12 11 8 6 7 7 6 4 2 3 4 3 3 3 3 3 3 3 5 7 7
11 11 13 18 20 19 19 18 19 15 14 11 14 15 17 19 16 15 15 16 16 13 13 12 11 8 7 7 7 5 4 5 5 4 2 3 4 4 4 5 6 5 5 7
14 9 11 15 18 18 20 19 19 18 15 15 15 16 16 16 15 15 14 13 12 13 12 13 11 8 7 7 7 4 4 4 6 3 3 2 2 3 3 2 4 6 6 7
18 15 20 22 19 17 15 16 16 17 17 17 17 17 17 18 17 15 13 11 11 10 9 10 11 9 8 8 7 5 4 4 3 3 2 2 1 2 2 3 5 5 5 6
6 14 11 15 16 16 16 13 15 17 14 17 18 18 18 16 17 15 14 14 13 13 7 10 11 11 9 8 7 4 5 4 3 2 2 2 2 2 2 2 2 3 4 5
5 8 12 10 10 13 12 12 14 14 14 16 16 15 15 14 15 16 15 16 15 8 13 11 11 10 9 8 7 5 5 5 4 3 3 2 2 1 1 3 2 2 3 4
9 9 10 10 10 9 13 14 15 15 14 17 20 19 18 15 16 16 13 10 6 11 12 13 9 7 7 7 6 4 5 5 4 4 3 3 2 1 3 2 2 2 3 3
12 12 12 12 13 12 12 15 17 16 16 15 15 15 17 15 14 11 6 12 8 13 10 8 7 9 8 9 5 6 5 5 4 3 3 3 3 3 2 2 1 1 2 3
13 13 12 13 13 13 13 14 15 18 17 17 17 18 18 15 13 13 8 7 10 12 8 7 9 11 10 6 6 5 5 5 4 4 4 4 4 4 3 3 1 1 1 3
10 9 10 9 11 12 14 12 15 16 17 17 18 18 17 11 5 2 6 14 15 16 9 9 10 11 10 6 6 5 5 5 5 4 4 5 4 3 3 3 2 1 0 2
15 13 13 13 13 11 14 14 13 12 13 12 13 12 14 11 12 8 9 10 15 13 8 10 12 12 7 6 6 5 5 5 5 5 5 5 4 4 3 3 3 2 1 1
11 9 10 14 11 11 11 12 11 10 11 10 8 8 7 6 9 11 9 11 12 11 8 7 7 8 6 7 6 6 6 5 5 5 5 5 5 4 3 3 3 2 2 1
7 8 9 8 8 11 11 11 12 11 10 12 12 9 9 9 10 11 11 10 10 8 7 7 7 7 6 6 6 6 6 5 5 5 5 5 4 4 4 4 3 3 2 0
Wind_Direction
216 231 184 176 186 177 191 167 172 180 167 177 171 169 166 158 157 156 149 145 147 147 146 141 121 114 99 88 76 79 72 52 16 358 359 359 355 4 357 355 350 344 340 337
210 172 90 198 207 197 172 171 110 167 180 179 164 149 152 158 161 158 154 151 149 145 141 135 127 118 107 96 84 97 72 45 15 10 2 1 17 1 355 345 341 338 337 335
229 120 81 306 211 195 170 187 150 176 195 159 164 164 165 162 167 158 152 151 147 144 138 130 127 125 117 107 105 88 76 43 26 14 10 29 9 1 346 339 332 336 336 337
167 75 215 251 197 189 195 187 158 129 160 169 172 166 164 170 158 151 149 146 143 141 132 133 129 123 121 100 111 94 68 48 29 22 41 18 9 355 343 338 336 338 345 348
146 206 295 279 199 178 169 209 181 157 165 165 153 139 150 161 153 152 149 146 145 141 133 130 131 134 103 105 102 87 69 49 35 46 38 18 4 347 340 340 338 351 347 351
139 167 218 210 215 141 95 224 185 157 168 159 149 172 185 156 139 137 138 142 142 132 130 126 137 119 111 118 104 93 79 55 67 49 36 14 346 340 336 339 336 348 342 348
139 212 276 244 196 136 178 227 175 169 168 165 177 174 140 140 137 140 143 145 135 132 136 140 137 118 117 120 110 115 85 77 87 45 25 5 338 330 330 336 330 339 349 348
105 98 264 199 150 175 200 177 181 165 165 165 133 134 142 144 142 144 146 142 134 130 134 140 131 119 125 117 130 103 79 99 80 55 23 360 345 331 335 340 344 339 344 349
185 206 215 247 204 199 169 152 164 155 160 144 143 147 149 149 149 151 149 141 139 134 130 131 131 127 121 141 124 104 83 114 88 64 26 351 352 345 345 351 350 350 343 350
110 219 225 228 241 168 167 153 147 155 148 146 148 151 150 150 150 151 144 141 137 134 136 137 134 122 131 140 123 108 92 122 86 49 22 356 351 351 346 341 349 349 346 349
225 261 124 248 192 147 100 116 128 147 149 149 146 155 150 151 150 146 143 141 143 143 142 145 134 128 133 132 120 109 104 110 82 35 4 355 353 340 342 314 333 346 344 341
220 178 173 198 184 154 137 140 143 138 140 152 149 150 150 151 147 146 144 143 141 143 140 141 131 131 131 124 122 119 103 117 94 50 319 352 344 346 323 338 339 344 342 355
193 182 176 160 162 152 139 143 144 142 145 147 150 146 149 146 148 145 144 146 147 148 140 136 134 132 133 130 125 121 129 131 120 12 6 23 0 354 344 356 352 342 343 350
162 113 107 162 172 165 144 139 131 134 142 145 145 144 144 143 145 148 153 151 143 138 139 138 138 141 148 137 121 122 123 126 87 62 94 38 14 356 349 340 341 343 349 348
173 180 171 145 131 137 136 137 138 147 146 147 148 143 143 147 152 152 145 144 141 140 142 139 139 149 149 136 127 134 124 103 91 101 72 62 24 2 352 331 325 336 339 347
160 140 145 151 156 156 152 153 148 155 151 140 143 149 152 149 147 146 147 145 143 157 150 145 148 155 146 134 133 129 120 108 108 105 90 38 17 1 3 357 352 350 350 351
139 143 151 155 161 164 170 166 159 161 158 151 151 147 145 142 142 147 151 151 144 148 149 149 151 150 143 139 141 145 127 114 125 111 81 39 12 356 1 358 359 354 353 349
165 165 168 166 168 163 164 165 165 159 166 157 147 148 147 152 155 155 149 133 125 125 140 146 147 144 141 145 145 147 136 133 136 121 100 40 20 14 357 14 16 1 348 342
165 151 154 159 161 159 160 157 161 161 150 149 147 157 157 153 153 150 142 140 143 147 171 150 147 143 148 155 150 142 135 139 135 124 132 106 42 26 43 30 10 357 341 342
159 153 156 146 136 146 149 158 151 151 151 144 143 143 149 152 151 149 153 161 170 163 150 153 153 152 154 161 155 150 146 150 142 140 123 122 126 186 73 60 46 4 345 337
181 166 161 156 160 151 157 153 149 149 153 149 151 159 160 155 155 151 148 156 186 147 154 157 157 157 163 163 157 153 148 144 136 150 153 165 174 96 91 65 42 26 340 339
184 178 178 169 170 169 166 163 158 151 152 156 151 142 145 151 153 156 158 165 155 149 153 162 162 163 163 158 156 155 154 152 158 149 158 169 139 135 137 108 68 339 352 336
195 190 168 169 171 167 159 169 159 154 154 155 154 156 161 163 162 156 163 162 151 164 160 163 161 158 155 156 157 156 156 156 164 166 162 158 156 154 151 156 165 126 10 333
166 158 163 145 147 150 162 160 159 161 160 162 163 161 149 149 151 37 104 149 153 162 171 163 164 159 159 156 159 158 159 160 163 162 159 156 152 147 141 155 134 193 354 352
179 170 152 154 164 168 156 157 150 148 148 151 155 160 161 169 164 164 146 152 152 159 163 159 157 159 164 161 160 160 161 164 163 155 156 155 157 156 160 156 162 178 207 303
161 161 163 160 158 156 155 153 149 149 145 143 149 155 148 135 130 139 138 151 155 158 152 152 161 164 160 162 161 160 160 157 154 158 160 155 159 159 162 164 165 165 191 238
121 131 137 128 140 143 150 153 147 155 159 157 152 154 148 135 142 142 136 144 151 150 145 149 154 161 159 157 159 156 157 156 157 156 155 157 158 162 166 171 173 177 182 137